sat.trackr.live / text

‹ back to catalog

ONEWEB-0238

NORAD 48784 · 2021-045T

PAYLOAD ACTIVE UNKNOWN

§ Identity

Operator
Country
UK
Launch date
2021-05-28
Launch site
VOSTO
Launch vehicle
Mass (kg)
RCS (m²)

Purposes: comms

External: N2YO · Heavens-Above · Gunter

§ Orbital elements

Epoch: 2026-09-19T22:17:56.279040Z

Period
109.46 min
Inclination
87.8981°
Eccentricity
0.0002134
Mean motion
13.15565161 rev/d
Perigee alt
1,200.1 km
Apogee alt
1,203.3 km
Semi-major
7,579.8 km
B*
4.5346e-3
RAAN
240.2924°
Arg perigee
92.3671°
Mean anomaly
267.7704°
Rev number
25,683

§ Raw data

ONEWEB-02381 48784U 21045T   26262.92912360  .00001721  00000+0  45346-2 0  99972 48784  87.8981 240.2924 0002134  92.3671 267.7704 13.15565161256836

JSON: /api/v1/satellites/48784 · /tle

For live sub-satellite position, see the globe view (requires WebGL).

§ Visibility from observer

Set your observer location to see the next 7 days of passes ≥ 10°. The values pass through the URL so the page stays shareable.

No JS? Fill the form by hand. The geolocation button needs JavaScript.